Tracking 18850 objects as of 22-Nov-2017
HD Live streaming from Space Station
objects crossing your sky now

FENGYUN 1C DEB

Track FENGYUN 1C DEB now!
10-day predictions


NORAD ID: 36659
Int'l Code: 1999-025DYD
Perigee: 855.7 km
Apogee: 1,063.1 km
Inclination: 99.9 °
Period: 104.1 minutes
Semi major axis: 7330 km
RCS: 0.0079 m2 (small)
Launch date: May 10, 1999
Source: People's Republic of China (PRC)
Launch site: Taiyaun Space Center, China (TSC)

Note: This is SATELLITE DEBRIS
aabbcc
Your satellite tracking list
Your tracking list is empty




NASA's NSSDC Master Catalog

Two Line Element Set (TLE):
1 36659U 99025DYD 17314.77675367  .00000204  00000-0  21378-3 0  9998
2 36659  99.8560 150.5417 0141476 268.9936  89.5005 13.83282318519884
Source of the keplerian elements: AFSPC